,,,PA_Meas_PMT16A,,PR_Meas_QMR101_102,,RH_Meas_QMH101,,SR_Meas_QMS101,,TA_Meas_QMH101,,GenWind,,GenWind,
date,time,status,PA,status,PR,status,RH,status,SR,status,TA,status,DirAvg,status,SpdAvg,
2010-10-08, 00:00:04,VALID,999.676,VALID,0,VALID,86.703,VALID,0,VALID,23.0183,VALID,168,VALID,0,
2010-10-08, 00:01:04,VALID,999.673,VALID,0,VALID,86.8403,VALID,0,VALID,22.9598,VALID,168,VALID,0.197266,
2010-10-08, 00:02:04,VALID,999.663,VALID,0,VALID,86.6801,VALID,0,VALID,22.9403,VALID,151,VALID,1.06602,
2010-10-08, 00:03:04,VALID,999.63,VALID,0,VALID,86.0545,VALID,0,VALID,23.0183,VALID,148,VALID,1.11641,
2010-10-08, 00:04:04,VALID,999.622,VALID,0,VALID,85.818,VALID,0,VALID,23.0964,VALID,185,VALID,1.19844,
2010-10-08, 00:05:04,VALID,999.585,VALID,0,VALID,86.4741,VALID,0,VALID,23.1159,VALID,210,VALID,0.689453,
2010-10-08, 00:06:04,VALID,999.547,VALID,0,VALID,85.7722,VALID,0,VALID,23.1957,VALID,205,VALID,1.0875,
2010-10-08, 00:07:04,VALID,999.523,VALID,0,VALID,84.9711,VALID,0,VALID,23.311,VALID,215,VALID,0.870313,
2010-10-08, 00:08:04,VALID,999.547,VALID,0,VALID,84.3226,VALID,0,VALID,23.3908,VALID,187,VALID,0.899609,
2010-10-08, 00:09:04,VALID,999.522,VALID,0,VALID,83.7274,VALID,0,VALID,23.4103,VALID,164,VALID,1.07734,
2010-10-08, 00:10:04,VALID,999.475,VALID,0,VALID,83.3765,VALID,0,VALID,23.428,VALID,164,VALID,0.826563,
2010-10-08, 00:11:04,VALID,999.47,VALID,0,VALID,83.3002,VALID,0,VALID,23.4884,VALID,164,VALID,0.530469,
2010-10-08, 00:12:04,VALID,999.446,VALID,0,VALID,83.2392,VALID,0,VALID,23.4671,VALID,164,VALID,0.619141,
2010-10-08, 00:13:04,VALID,999.415,VALID,0,VALID,83.346,VALID,0,VALID,23.4866,VALID,117,VALID,0.779688,
2010-10-08, 00:14:04,VALID,999.404,VALID,0,VALID,83.1629,VALID,0,VALID,23.4866,VALID,114,VALID,0.702344,
2010-10-08, 00:15:04,VALID,999.394,VALID,0,VALID,83.3078,VALID,0,VALID,23.4866,VALID,99,VALID,1.08398,
2010-10-08, 00:16:04,VALID,999.362,VALID,0,VALID,84.0021,VALID,0,VALID,23.428,VALID,99,VALID,0.972266,
2010-10-08, 00:17:04,VALID,999.358,VALID,0,VALID,84.4446,VALID,0,VALID,23.3695,VALID,99,VALID,0.853906,
2010-10-08, 00:18:04,VALID,999.332,VALID,0,VALID,84.6812,VALID,0,VALID,23.2915,VALID,99,VALID,0.967188,
2010-10-08, 00:19:04,VALID,999.319,VALID,0,VALID,84.6964,VALID,0,VALID,23.2719,VALID,93,VALID,1.08516,
2010-10-08, 00:20:04,VALID,999.304,VALID,0,VALID,84.7269,VALID,0,VALID,23.2329,VALID,84,VALID,1.05039,
2010-10-08, 00:21:04,VALID,999.31,VALID,0,VALID,85.1618,VALID,0,VALID,23.1744,VALID,67,VALID,1.26445,
2010-10-08, 00:22:04,VALID,999.273,VALID,0,VALID,85.4517,VALID,0,VALID,23.0769,VALID,64,VALID,1.03945,
2010-10-08, 00:23:04,VALID,999.291,VALID,0,VALID,85.6501,VALID,0,VALID,22.9793,VALID,74,VALID,1.11055,
2010-10-08, 00:24:04,VALID,999.281,VALID,0,VALID,85.9019,VALID,0,VALID,22.8818,VALID,67,VALID,0.803906,
2010-10-08, 00:25:04,VALID,999.258,VALID,0,VALID,86.1689,VALID,0,VALID,22.8232,VALID,68,VALID,0.634375,
2010-10-08, 00:26:04,VALID,999.262,VALID,0,VALID,86.4894,VALID,0,VALID,22.7647,VALID,68,VALID,0.527734,
2010-10-08, 00:27:04,VALID,999.213,VALID,0,VALID,86.5504,VALID,0,VALID,22.7062,VALID,47,VALID,0.784375,
2010-10-08, 00:28:04,VALID,999.229,VALID,0,VALID,86.8403,VALID,0,VALID,22.6689,VALID,43,VALID,0.720703,
2010-10-08, 00:29:04,VALID,999.218,VALID,0,VALID,87.2447,VALID,0,VALID,22.5714,VALID,43,VALID,0.876172,
2010-10-08, 00:30:04,VALID,999.197,VALID,0,VALID,87.6262,VALID,0,VALID,22.4916,VALID,43,VALID,0.855859,
2010-10-08, 00:31:04,VALID,999.198,VALID,0,VALID,88.1221,VALID,0,VALID,22.4526,VALID,53,VALID,1.21953,
2010-10-08, 00:32:04,VALID,999.195,VALID,0,VALID,88.4426,VALID,0,VALID,22.4526,VALID,46,VALID,1.26797,
2010-10-08, 00:33:04,VALID,999.157,VALID,0,VALID,89.2284,VALID,0,VALID,22.4526,VALID,38,VALID,1.44727,
2010-10-08, 00:34:04,VALID,999.153,VALID,0,VALID,89.5031,VALID,0,VALID,22.4331,VALID,30,VALID,1.28008,
2010-10-08, 00:35:04,VALID,999.133,VALID,0,VALID,89.6023,VALID,0,VALID,22.3941,VALID,33,VALID,1.25391,
2010-10-08, 00:36:04,VALID,999.117,VALID,0,VALID,89.8922,VALID,0,VALID,22.3958,VALID,46,VALID,1.08945,
2010-10-08, 00:37:04,VALID,999.087,VALID,0,VALID,90.2279,VALID,0,VALID,22.3746,VALID,44,VALID,1.2168,
2010-10-08, 00:38:04,VALID,999.066,VALID,0,VALID,89.999,VALID,0,VALID,22.4153,VALID,55,VALID,1.26953,
2010-10-08, 00:39:04,VALID,999.091,VALID,0,VALID,89.4878,VALID,0,VALID,22.3941,VALID,51,VALID,1.31211,
2010-10-08, 00:40:04,VALID,999.061,VALID,0,VALID,89.1903,VALID,0,VALID,22.4348,VALID,62,VALID,1.23125,
2010-10-08, 00:41:04,VALID,999.042,VALID,0,VALID,88.7554,VALID,0,VALID,22.4526,VALID,61,VALID,1.00586,
2010-10-08, 00:42:04,VALID,999.048,VALID,0,VALID,88.3663,VALID,0,VALID,22.4136,VALID,76,VALID,0.394922,
2010-10-08, 00:43:04,VALID,999.02,VALID,0,VALID,88.1068,VALID,0,VALID,22.4136,VALID,76,VALID,0.213672,
2010-10-08, 00:44:04,VALID,999.032,VALID,0,VALID,87.9161,VALID,0,VALID,22.3746,VALID,76,VALID,0.493359,
2010-10-08, 00:45:04,VALID,999.045,VALID,0,VALID,87.7711,VALID,0,VALID,22.3746,VALID,87,VALID,0.530859,
2010-10-08, 00:46:04,VALID,999.027,VALID,0,VALID,87.4431,VALID,0,VALID,22.3551,VALID,132,VALID,0.725391,
2010-10-08, 00:47:04,VALID,999.03,VALID,0,VALID,86.9395,VALID,0,VALID,22.3746,VALID,148,VALID,0.976953,
2010-10-08, 00:48:04,VALID,999.011,VALID,0,VALID,86.3673,VALID,0,VALID,22.3941,VALID,142,VALID,0.948828,
2010-10-08, 00:49:04,VALID,998.999,VALID,0,VALID,86.0163,VALID,0,VALID,22.4331,VALID,144,VALID,1.01523,
2010-10-08, 00:50:04,VALID,998.972,VALID,0,VALID,85.8027,VALID,0,VALID,22.4721,VALID,140,VALID,0.942187,
2010-10-08, 00:51:04,VALID,998.951,VALID,0,VALID,85.7112,VALID,0,VALID,22.5128,VALID,138,VALID,0.944531,
2010-10-08, 00:52:04,VALID,998.925,VALID,0,VALID,85.6806,VALID,0,VALID,22.5111,VALID,137,VALID,0.683984,
2010-10-08, 00:53:04,VALID,998.917,VALID,0,VALID,85.8332,VALID,0,VALID,22.5111,VALID,137,VALID,0.443359,
2010-10-08, 00:54:04,VALID,998.928,VALID,0,VALID,86.23,VALID,0,VALID,22.4916,VALID,138,VALID,0.116797,
2010-10-08, 00:55:04,VALID,998.941,VALID,0,VALID,86.436,VALID,0,VALID,22.4526,VALID,138,VALID,0.204688,
2010-10-08, 00:56:04,VALID,998.878,VALID,0,VALID,86.5351,VALID,0,VALID,22.3941,VALID,138,VALID,0.269922,
2010-10-08, 00:57:04,VALID,998.87,VALID,0,VALID,86.6877,VALID,0,VALID,22.3551,VALID,138,VALID,0.343359,
2010-10-08, 00:58:04,VALID,998.868,VALID,0,VALID,86.8785,VALID,0,VALID,22.3568,VALID,138,VALID,0.265234,
2010-10-08, 00:59:04,VALID,998.85,VALID,0,VALID,86.9548,VALID,0,VALID,22.3144,VALID,138,VALID,0.136328,
2010-10-08, 01:00:04,VALID,998.859,VALID,0,VALID,86.9243,VALID,0,VALID,22.3356,VALID,138,VALID,0.0886719,
2010-10-08, 01:01:04,VALID,998.859,VALID,0,VALID,86.8709,VALID,0,VALID,22.3746,VALID,138,VALID,0.186328,
2010-10-08, 01:02:04,VALID,998.825,VALID,0,VALID,87.0616,VALID,0,VALID,22.3746,VALID,138,VALID,0.0792969,
2010-10-08, 01:03:04,VALID,998.803,VALID,0,VALID,87.2981,VALID,0,VALID,22.3746,VALID,138,VALID,0.0183594,
2010-10-08, 01:04:04,VALID,998.765,VALID,0,VALID,87.6643,VALID,0,VALID,22.3941,VALID,138,VALID,0.26875,
2010-10-08, 01:05:04,VALID,998.77,VALID,0,VALID,87.6567,VALID,0,VALID,22.3941,VALID,138,VALID,0.237109,
2010-10-08, 01:06:04,VALID,998.761,VALID,0,VALID,87.6109,VALID,0,VALID,22.4136,VALID,138,VALID,0.208984,
2010-10-08, 01:07:04,VALID,998.734,VALID,0,VALID,87.6491,VALID,0,VALID,22.4331,VALID,138,VALID,0.189453,
2010-10-08, 01:08:04,VALID,998.715,VALID,0,VALID,87.588,VALID,0,VALID,22.4331,VALID,138,VALID,0.126563,
2010-10-08, 01:09:04,VALID,998.718,VALID,0,VALID,87.5423,VALID,0,VALID,22.4136,VALID,138,VALID,0,
2010-10-08, 01:10:04,VALID,998.682,VALID,0,VALID,87.5651,VALID,0.112286,VALID,22.3729,VALID,138,VALID,0.00820312,
2010-10-08, 01:11:04,VALID,998.712,VALID,0,VALID,87.7788,VALID,0,VALID,22.3551,VALID,138,VALID,0.295703,
2010-10-08, 01:12:04,VALID,998.688,VALID,0,VALID,87.9924,VALID,0,VALID,22.3551,VALID,138,VALID,0.0183594,
2010-10-08, 01:13:04,VALID,998.673,VALID,0,VALID,88.1068,VALID,0,VALID,22.3568,VALID,138,VALID,0.207422,
2010-10-08, 01:14:04,VALID,998.674,VALID,0,VALID,88.145,VALID,0,VALID,22.3356,VALID,138,VALID,0.0210938,
2010-10-08, 01:15:04,VALID,998.668,VALID,0,VALID,88.206,VALID,0,VALID,22.3161,VALID,138,VALID,0.0015625,
2010-10-08, 01:16:04,VALID,998.655,VALID,0,VALID,88.2747,VALID,0,VALID,22.2966,VALID,138,VALID,0,
2010-10-08, 01:17:04,VALID,998.635,VALID,0,VALID,88.3739,VALID,0,VALID,22.3161,VALID,138,VALID,0.380859,
2010-10-08, 01:18:04,VALID,998.64,VALID,0,VALID,88.2823,VALID,0,VALID,22.3356,VALID,138,VALID,0.441406,
2010-10-08, 01:19:04,VALID,998.582,VALID,0,VALID,87.9161,VALID,0,VALID,22.3339,VALID,189,VALID,1.15156,
2010-10-08, 01:20:04,VALID,998.661,VALID,0,VALID,87.7101,VALID,0,VALID,22.4526,VALID,180,VALID,1.3418,
2010-10-08, 01:21:04,VALID,998.654,VALID,0,VALID,86.9853,VALID,0,VALID,22.5306,VALID,164,VALID,0.953516,
2010-10-08, 01:22:04,VALID,998.684,VALID,0,VALID,86.4207,VALID,0,VALID,22.5909,VALID,164,VALID,0.39375,
2010-10-08, 01:23:04,VALID,998.644,VALID,0,VALID,86.1613,VALID,0,VALID,22.6282,VALID,164,VALID,0.205078,
2010-10-08, 01:24:04,VALID,998.621,VALID,0,VALID,85.6806,VALID,0,VALID,22.6282,VALID,112,VALID,0.710938,
2010-10-08, 01:25:04,VALID,998.628,VALID,0,VALID,85.3526,VALID,0,VALID,22.6867,VALID,96,VALID,0.662891,
2010-10-08, 01:26:04,VALID,998.582,VALID,0,VALID,84.9787,VALID,0,VALID,22.7257,VALID,96,VALID,0.759375,
2010-10-08, 01:27:04,VALID,998.573,VALID,0,VALID,84.704,VALID,0,VALID,22.763,VALID,96,VALID,0.592578,
2010-10-08, 01:28:04,VALID,998.573,VALID,0,VALID,84.6201,VALID,0,VALID,22.8037,VALID,96,VALID,0.457422,
2010-10-08, 01:29:04,VALID,998.541,VALID,0,VALID,84.5515,VALID,0,VALID,22.8232,VALID,96,VALID,0.71875,
2010-10-08, 01:30:04,VALID,998.538,VALID,0,VALID,84.6888,VALID,0,VALID,22.8037,VALID,85,VALID,0.954687,
2010-10-08, 01:31:04,VALID,998.564,VALID,0,VALID,84.9024,VALID,0,VALID,22.786,VALID,85,VALID,0.805859,
2010-10-08, 01:32:04,VALID,998.55,VALID,0,VALID,85.1008,VALID,0,VALID,22.7452,VALID,85,VALID,0.721484,
2010-10-08, 01:33:04,VALID,998.556,VALID,0,VALID,85.2839,VALID,0,VALID,22.6867,VALID,85,VALID,0.622266,
2010-10-08, 01:34:04,VALID,998.527,VALID,0,VALID,85.612,VALID,0,VALID,22.6689,VALID,85,VALID,0.616406,
2010-10-08, 01:35:04,VALID,998.507,VALID,0,VALID,85.6349,VALID,0,VALID,22.6689,VALID,85,VALID,0.519531,
2010-10-08, 01:36:04,VALID,998.486,VALID,0,VALID,85.6425,VALID,0,VALID,22.6282,VALID,85,VALID,0.308203,
2010-10-08, 01:37:04,VALID,998.454,VALID,0,VALID,85.8332,VALID,0,VALID,22.5892,VALID,85,VALID,0.234766,
2010-10-08, 01:38:04,VALID,998.476,VALID,0,VALID,86.0316,VALID,0,VALID,22.5501,VALID,85,VALID,0.157031,
2010-10-08, 01:39:04,VALID,998.444,VALID,0,VALID,86.2376,VALID,0,VALID,22.5306,VALID,85,VALID,0.246094,
2010-10-08, 01:40:04,VALID,998.453,VALID,0,VALID,86.352,VALID,0,VALID,22.5306,VALID,85,VALID,0.185156,
2010-10-08, 01:41:04,VALID,998.393,VALID,0,VALID,86.3444,VALID,0,VALID,22.5111,VALID,85,VALID,0.229687,
2010-10-08, 01:42:04,VALID,998.397,VALID,0,VALID,86.3597,VALID,0,VALID,22.5111,VALID,85,VALID,0.151562,
2010-10-08, 01:43:04,VALID,998.357,VALID,0,VALID,86.4589,VALID,0,VALID,22.4721,VALID,85,VALID,0.218359,
2010-10-08, 01:44:04,VALID,998.373,VALID,0,VALID,86.4741,VALID,0,VALID,22.4721,VALID,85,VALID,0.0394531,
2010-10-08, 01:45:04,VALID,998.352,VALID,0,VALID,86.4436,VALID,0,VALID,22.4331,VALID,85,VALID,0,
2010-10-08, 01:46:04,VALID,998.351,VALID,0,VALID,86.5199,VALID,0,VALID,22.3746,VALID,85,VALID,0,
2010-10-08, 01:47:04,VALID,998.389,VALID,0,VALID,86.8785,VALID,0,VALID,22.3551,VALID,85,VALID,0,
2010-10-08, 01:48:04,VALID,998.4,VALID,0,VALID,87.115,VALID,0,VALID,22.3356,VALID,85,VALID,0.227344,
2010-10-08, 01:49:04,VALID,998.44,VALID,0,VALID,87.176,VALID,0,VALID,22.3356,VALID,85,VALID,0.524219,
2010-10-08, 01:50:04,VALID,998.418,VALID,0,VALID,87.4202,VALID,0,VALID,22.2966,VALID,85,VALID,0.61875,
2010-10-08, 01:51:04,VALID,998.487,VALID,0,VALID,87.7101,VALID,0,VALID,22.2966,VALID,71,VALID,0.807813,
2010-10-08, 01:52:04,VALID,998.453,VALID,0,VALID,88.0763,VALID,0,VALID,22.2966,VALID,68,VALID,1.01211,
2010-10-08, 01:53:04,VALID,998.469,VALID,0,VALID,88.3892,VALID,0,VALID,22.3161,VALID,68,VALID,1.01914,
2010-10-08, 01:54:04,VALID,998.443,VALID,0,VALID,88.4426,VALID,0,VALID,22.3161,VALID,68,VALID,0.990625,
2010-10-08, 01:55:04,VALID,998.402,VALID,0,VALID,88.702,VALID,0,VALID,22.3161,VALID,68,VALID,0.990234,
2010-10-08, 01:56:04,VALID,998.398,VALID,0,VALID,88.9919,VALID,0,VALID,22.3178,VALID,68,VALID,0.840234,
2010-10-08, 01:57:04,VALID,998.349,VALID,0,VALID,89.0987,VALID,0,VALID,22.2576,VALID,55,VALID,0.876172,
2010-10-08, 01:58:04,VALID,998.345,VALID,0,VALID,88.9919,VALID,0,VALID,22.2186,VALID,54,VALID,0.566797,
2010-10-08, 01:59:04,VALID,998.337,VALID,0,VALID,89.03,VALID,0,VALID,22.16,VALID,54,VALID,0.419531,
2010-10-08, 02:00:04,VALID,998.317,VALID,0,VALID,88.908,VALID,0,VALID,22.082,VALID,54,VALID,0.360547,
2010-10-08, 02:01:04,VALID,998.339,VALID,0,VALID,89.2208,VALID,0,VALID,22.0235,VALID,54,VALID,0.365625,
2010-10-08, 02:02:04,VALID,998.29,VALID,0,VALID,89.4497,VALID,0,VALID,21.9455,VALID,54,VALID,0.307031,
2010-10-08, 02:03:04,VALID,998.322,VALID,0,VALID,89.854,VALID,0,VALID,21.887,VALID,54,VALID,0.378125,
2010-10-08, 02:04:04,VALID,998.288,VALID,0,VALID,90.2737,VALID,0,VALID,21.848,VALID,54,VALID,0.274609,
2010-10-08, 02:05:04,VALID,998.272,VALID,0,VALID,90.6323,VALID,0,VALID,21.8496,VALID,54,VALID,0.229687,
2010-10-08, 02:06:04,VALID,998.226,VALID,0,VALID,91.0519,VALID,0,VALID,21.8285,VALID,54,VALID,0.162109,
2010-10-08, 02:07:04,VALID,998.203,VALID,0,VALID,91.3647,VALID,0,VALID,21.8285,VALID,54,VALID,0.399219,
2010-10-08, 02:08:04,VALID,998.168,VALID,0,VALID,91.6012,VALID,0,VALID,21.848,VALID,54,VALID,0.525,
2010-10-08, 02:09:04,VALID,998.172,VALID,0,VALID,91.7462,VALID,0,VALID,21.848,VALID,54,VALID,0.555078,
2010-10-08, 02:10:04,VALID,998.166,VALID,0,VALID,91.8759,VALID,0,VALID,21.848,VALID,54,VALID,0.659375,
2010-10-08, 02:11:04,VALID,998.131,VALID,0,VALID,91.9369,VALID,0,VALID,21.848,VALID,54,VALID,0.702344,
2010-10-08, 02:12:04,VALID,998.162,VALID,0,VALID,91.9217,VALID,0,VALID,21.848,VALID,54,VALID,0.654688,
2010-10-08, 02:13:04,VALID,998.131,VALID,0,VALID,91.8835,VALID,0,VALID,21.8285,VALID,54,VALID,0.630859,
2010-10-08, 02:14:04,VALID,998.137,VALID,0,VALID,91.8988,VALID,0,VALID,21.7895,VALID,54,VALID,0.573047,
2010-10-08, 02:15:04,VALID,998.165,VALID,0,VALID,91.8911,VALID,0,VALID,21.77,VALID,54,VALID,0.491406,
2010-10-08, 02:16:04,VALID,998.162,VALID,0,VALID,91.9598,VALID,0,VALID,21.7115,VALID,54,VALID,0.258203,
2010-10-08, 02:17:04,VALID,998.156,VALID,0,VALID,92.0361,VALID,0,VALID,21.7115,VALID,54,VALID,0.0160156,
2010-10-08, 02:18:04,VALID,998.171,VALID,0,VALID,92.0895,VALID,0,VALID,21.6725,VALID,54,VALID,0,
2010-10-08, 02:19:04,VALID,998.157,VALID,0,VALID,92.1506,VALID,0,VALID,21.653,VALID,54,VALID,0,
2010-10-08, 02:20:04,VALID,998.144,VALID,0,VALID,92.2345,VALID,0,VALID,21.614,VALID,54,VALID,0,
2010-10-08, 02:21:04,VALID,998.163,VALID,0,VALID,92.2955,VALID,0,VALID,21.614,VALID,54,VALID,0,
2010-10-08, 02:22:04,VALID,998.16,VALID,0,VALID,92.471,VALID,0,VALID,21.6335,VALID,54,VALID,0.317969,
2010-10-08, 02:23:04,VALID,998.137,VALID,0,VALID,92.6312,VALID,0,VALID,21.692,VALID,54,VALID,0.302344,
2010-10-08, 02:24:04,VALID,998.133,VALID,0,VALID,92.7685,VALID,0,VALID,21.731,VALID,54,VALID,0.252344,
2010-10-08, 02:25:04,VALID,998.096,VALID,0,VALID,92.8906,VALID,0,VALID,21.7911,VALID,54,VALID,0.340625,
2010-10-08, 02:26:04,VALID,998.073,VALID,0,VALID,92.9745,VALID,0,VALID,21.809,VALID,54,VALID,0.347656,
2010-10-08, 02:27:04,VALID,998.096,VALID,0,VALID,92.9822,VALID,0,VALID,21.7895,VALID,54,VALID,0.619141,
2010-10-08, 02:28:04,VALID,998.105,VALID,0,VALID,93.0356,VALID,0,VALID,21.809,VALID,54,VALID,0.662891,
2010-10-08, 02:29:04,VALID,998.093,VALID,0,VALID,93.089,VALID,0,VALID,21.809,VALID,54,VALID,0.713672,
2010-10-08, 02:30:04,VALID,998.084,VALID,0,VALID,93.0508,VALID,0,VALID,21.809,VALID,57,VALID,0.738672,
2010-10-08, 02:31:04,VALID,998.054,VALID,0,VALID,92.9593,VALID,0,VALID,21.809,VALID,60,VALID,0.648438,
2010-10-08, 02:32:04,VALID,998.069,VALID,0,VALID,92.8677,VALID,0,VALID,21.8285,VALID,61,VALID,0.609375,
2010-10-08, 02:33:04,VALID,998.077,VALID,0,VALID,92.7151,VALID,0,VALID,21.809,VALID,61,VALID,0.575,
2010-10-08, 02:34:04,VALID,998.033,VALID,0,VALID,92.5626,VALID,0,VALID,21.8285,VALID,61,VALID,0.510156,
2010-10-08, 02:35:04,VALID,998.026,VALID,0,VALID,92.3642,VALID,0,VALID,21.848,VALID,61,VALID,0.405859,
2010-10-08, 02:36:04,VALID,998.026,VALID,0,VALID,92.1506,VALID,0,VALID,21.848,VALID,61,VALID,0.4375,
2010-10-08, 02:37:04,VALID,998.043,VALID,0,VALID,91.9674,VALID,0,VALID,21.8675,VALID,61,VALID,0.377734,
2010-10-08, 02:38:04,VALID,998.079,VALID,0,VALID,91.7385,VALID,0,VALID,21.848,VALID,61,VALID,0.553516,
2010-10-08, 02:39:04,VALID,998.037,VALID,0,VALID,91.4334,VALID,0,VALID,21.848,VALID,111,VALID,0.739453,
2010-10-08, 02:40:04,VALID,998.052,VALID,0,VALID,90.9985,VALID,0,VALID,21.887,VALID,122,VALID,0.770312,
2010-10-08, 02:41:04,VALID,998.026,VALID,0,VALID,90.5178,VALID,0,VALID,21.9277,VALID,122,VALID,0.796875,
2010-10-08, 02:42:04,VALID,997.995,VALID,0,VALID,90.1058,VALID,0,VALID,21.9455,VALID,122,VALID,0.358984,
2010-10-08, 02:43:04,VALID,997.978,VALID,0,VALID,89.854,VALID,0.112286,VALID,21.926,VALID,122,VALID,0.189453,
2010-10-08, 02:44:04,VALID,997.996,VALID,0,VALID,89.8159,VALID,0,VALID,21.926,VALID,122,VALID,0.1375,
2010-10-08, 02:45:04,VALID,997.987,VALID,0,VALID,89.8846,VALID,0,VALID,21.926,VALID,122,VALID,0.266406,
2010-10-08, 02:46:04,VALID,998.013,VALID,0,VALID,89.999,VALID,0,VALID,21.9065,VALID,122,VALID,0.257031,
2010-10-08, 02:47:04,VALID,998.051,VALID,0,VALID,90.0677,VALID,0,VALID,21.926,VALID,122,VALID,0.304297,
2010-10-08, 02:48:04,VALID,998.045,VALID,0,VALID,90.0219,VALID,0,VALID,21.9065,VALID,122,VALID,0.280859,
2010-10-08, 02:49:04,VALID,998.056,VALID,0,VALID,90.0982,VALID,0,VALID,21.9065,VALID,122,VALID,0.344531,
2010-10-08, 02:50:04,VALID,998.038,VALID,0,VALID,90.2355,VALID,0,VALID,21.9065,VALID,122,VALID,0.43125,
2010-10-08, 02:51:04,VALID,998.028,VALID,0,VALID,90.3347,VALID,0,VALID,21.926,VALID,122,VALID,0.422266,
2010-10-08, 02:52:04,VALID,998.027,VALID,0,VALID,90.3576,VALID,0,VALID,21.926,VALID,121,VALID,0.455469,
2010-10-08, 02:53:04,VALID,998.009,VALID,0,VALID,90.2431,VALID,0,VALID,21.9065,VALID,121,VALID,0.435937,
2010-10-08, 02:54:04,VALID,997.987,VALID,0,VALID,90.1745,VALID,0,VALID,21.9065,VALID,121,VALID,0.455859,
2010-10-08, 02:55:04,VALID,998.002,VALID,0,VALID,89.9303,VALID,0,VALID,21.8675,VALID,121,VALID,0.503125,
2010-10-08, 02:56:04,VALID,997.996,VALID,0,VALID,89.8846,VALID,0,VALID,21.809,VALID,121,VALID,0.327734,
2010-10-08, 02:57:04,VALID,998.016,VALID,0,VALID,90.1287,VALID,0,VALID,21.77,VALID,121,VALID,0.339453,
2010-10-08, 02:58:04,VALID,998.021,VALID,0,VALID,90.1592,VALID,0,VALID,21.6936,VALID,121,VALID,0.382422,
2010-10-08, 02:59:04,VALID,997.98,VALID,0,VALID,90.35,VALID,0,VALID,21.614,VALID,121,VALID,0.496094,
2010-10-08, 03:00:04,VALID,998.001,VALID,0,VALID,90.9222,VALID,0,VALID,21.614,VALID,121,VALID,0.558594,
2010-10-08, 03:01:04,VALID,997.994,VALID,0,VALID,91.2808,VALID,0,VALID,21.614,VALID,94,VALID,0.717188,
2010-10-08, 03:02:04,VALID,998,VALID,0,VALID,91.4563,VALID,0,VALID,21.614,VALID,84,VALID,0.683984,
2010-10-08, 03:03:04,VALID,998.02,VALID,0,VALID,91.5707,VALID,0,VALID,21.6335,VALID,84,VALID,0.583984,
2010-10-08, 03:04:04,VALID,998.021,VALID,0,VALID,91.6928,VALID,0,VALID,21.6725,VALID,84,VALID,0.420703,
2010-10-08, 03:05:04,VALID,998.021,VALID,0,VALID,91.6775,VALID,0,VALID,21.7115,VALID,84,VALID,0.474219,
2010-10-08, 03:06:04,VALID,998.015,VALID,0,VALID,91.6165,VALID,0,VALID,21.731,VALID,84,VALID,0.3625,
2010-10-08, 03:07:04,VALID,998.024,VALID,0,VALID,91.5631,VALID,0,VALID,21.7505,VALID,84,VALID,0.395312,
2010-10-08, 03:08:04,VALID,997.974,VALID,0,VALID,91.6317,VALID,0,VALID,21.77,VALID,84,VALID,0.446484,
2010-10-08, 03:09:04,VALID,997.977,VALID,0,VALID,91.6623,VALID,0,VALID,21.7895,VALID,84,VALID,0.637109,
2010-10-08, 03:10:04,VALID,998,VALID,0,VALID,91.708,VALID,0,VALID,21.7895,VALID,53,VALID,0.772656,
2010-10-08, 03:11:04,VALID,998.004,VALID,0,VALID,91.7004,VALID,0,VALID,21.77,VALID,52,VALID,0.793359,
2010-10-08, 03:12:04,VALID,998.01,VALID,0,VALID,91.6394,VALID,0,VALID,21.7505,VALID,45,VALID,0.735937,
2010-10-08, 03:13:04,VALID,998.03,VALID,0,VALID,91.5249,VALID,0,VALID,21.692,VALID,45,VALID,0.583203,
2010-10-08, 03:14:04,VALID,998.006,VALID,0,VALID,91.4105,VALID,0,VALID,21.6741,VALID,45,VALID,0.314844,
2010-10-08, 03:15:04,VALID,998.036,VALID,0,VALID,91.3342,VALID,0,VALID,21.614,VALID,45,VALID,0.177344,
2010-10-08, 03:16:04,VALID,998.012,VALID,0,VALID,91.2884,VALID,0,VALID,21.5555,VALID,45,VALID,0.167187,
2010-10-08, 03:17:04,VALID,998.024,VALID,0,VALID,91.296,VALID,0,VALID,21.536,VALID,45,VALID,0.345313,
2010-10-08, 03:18:04,VALID,998.028,VALID,0,VALID,91.3494,VALID,0,VALID,21.5165,VALID,45,VALID,0.165625,
2010-10-08, 03:19:04,VALID,998.016,VALID,0,VALID,91.4257,VALID,0,VALID,21.497,VALID,45,VALID,0.150391,
2010-10-08, 03:20:04,VALID,997.995,VALID,0,VALID,91.4639,VALID,0,VALID,21.4385,VALID,45,VALID,0.00117188,
2010-10-08, 03:21:04,VALID,997.986,VALID,0,VALID,91.5707,VALID,0,VALID,21.4385,VALID,45,VALID,0.0300781,
2010-10-08, 03:22:04,VALID,997.973,VALID,0,VALID,91.7614,VALID,0,VALID,21.4385,VALID,45,VALID,0.247656,
2010-10-08, 03:23:04,VALID,997.966,VALID,0,VALID,91.9217,VALID,0,VALID,21.5181,VALID,51,VALID,0.606641,
2010-10-08, 03:24:04,VALID,997.969,VALID,0,VALID,91.9903,VALID,0,VALID,21.575,VALID,60,VALID,0.543359,
2010-10-08, 03:25:04,VALID,997.968,VALID,0,VALID,91.8072,VALID,0,VALID,21.6725,VALID,60,VALID,0.823047,
2010-10-08, 03:26:04,VALID,997.904,VALID,0,VALID,91.4257,VALID,0,VALID,21.731,VALID,60,VALID,0.823828,
2010-10-08, 03:27:04,VALID,997.921,VALID,0,VALID,90.884,VALID,0,VALID,21.7505,VALID,55,VALID,0.972266,
2010-10-08, 03:28:04,VALID,997.937,VALID,0,VALID,90.2737,VALID,0,VALID,21.7505,VALID,55,VALID,0.744922,
2010-10-08, 03:29:04,VALID,997.911,VALID,0,VALID,89.9532,VALID,0,VALID,21.7115,VALID,55,VALID,0.305859,
2010-10-08, 03:30:04,VALID,997.947,VALID,0,VALID,89.7396,VALID,0,VALID,21.6725,VALID,55,VALID,0.0316406,
2010-10-08, 03:31:04,VALID,997.913,VALID,0,VALID,89.938,VALID,0,VALID,21.6741,VALID,55,VALID,0.00703125,
2010-10-08, 03:32:04,VALID,997.902,VALID,0,VALID,90.3194,VALID,0,VALID,21.692,VALID,55,VALID,0.328125,
2010-10-08, 03:33:04,VALID,997.91,VALID,0,VALID,90.5712,VALID,0.112286,VALID,21.7293,VALID,184,VALID,0.513672,
2010-10-08, 03:34:04,VALID,997.903,VALID,0,VALID,90.5712,VALID,0,VALID,21.809,VALID,188,VALID,0.409375,
2010-10-08, 03:35:04,VALID,997.896,VALID,0,VALID,90.4034,VALID,0,VALID,21.848,VALID,182,VALID,0.382031,
2010-10-08, 03:36:04,VALID,997.858,VALID,0,VALID,90.1821,VALID,0,VALID,21.8675,VALID,144,VALID,0.416797,
2010-10-08, 03:37:04,VALID,997.865,VALID,0,VALID,89.8846,VALID,0,VALID,21.8675,VALID,144,VALID,0.524609,
2010-10-08, 03:38:04,VALID,997.866,VALID,0,VALID,89.648,VALID,0,VALID,21.8463,VALID,144,VALID,0.448047,
2010-10-08, 03:39:04,VALID,997.85,VALID,0,VALID,89.648,VALID,0,VALID,21.8675,VALID,144,VALID,0.398047,
2010-10-08, 03:40:04,VALID,997.871,VALID,0,VALID,89.6099,VALID,0,VALID,21.8675,VALID,144,VALID,0.281641,
2010-10-08, 03:41:04,VALID,997.871,VALID,0,VALID,89.6175,VALID,0,VALID,21.848,VALID,144,VALID,0.363281,
2010-10-08, 03:42:04,VALID,997.851,VALID,0,VALID,89.6328,VALID,0,VALID,21.8675,VALID,144,VALID,0.358984,
2010-10-08, 03:43:04,VALID,997.897,VALID,0,VALID,89.7854,VALID,0,VALID,21.848,VALID,144,VALID,0.360156,
2010-10-08, 03:44:04,VALID,997.874,VALID,0,VALID,89.8846,VALID,0,VALID,21.887,VALID,57,VALID,0.723047,
2010-10-08, 03:45:04,VALID,997.917,VALID,0,VALID,89.6938,VALID,0,VALID,21.9065,VALID,57,VALID,0.616797,
2010-10-08, 03:46:04,VALID,997.912,VALID,0,VALID,89.4268,VALID,0.112286,VALID,21.926,VALID,56,VALID,0.605078,